Time,TemperatureF,DewpointF,PressureIn,WindDirection,WindDirectionDegrees,WindSpeedMPH,WindSpeedGustMPH,Humidity,HourlyPrecipIn,Conditions,Clouds,dailyrainin,SolarRadiationWatts/m^2,SoftwareType,DateUTC
2013-01-26 00:01:00,11.0,7.0,-100.00,WNW,295,4.0,8.0,85,0.00,,,0.00,0.000000,,2013-01-26 06:01:00,
2013-01-26 00:32:00,11.0,7.0,-100.00,WNW,295,4.0,8.0,85,0.00,,,0.00,0.000000,,2013-01-26 06:32:00,
2013-01-26 00:42:00,11.0,7.0,-100.00,WNW,295,4.0,8.0,85,0.00,,,0.00,0.000000,,2013-01-26 06:42:00,
2013-01-26 00:52:00,11.0,7.0,-100.00,WNW,295,4.0,8.0,85,0.00,,,0.00,0.000000,,2013-01-26 06:52:00,
2013-01-26 01:01:00,10.0,6.0,-100.00,WNW,293,4.0,10.0,84,0.00,,,0.00,0.000000,,2013-01-26 07:01:00,
2013-01-26 01:33:00,10.0,6.0,-100.00,WNW,293,4.0,10.0,84,0.00,,,0.00,0.000000,,2013-01-26 07:33:00,
2013-01-26 01:42:00,10.0,6.0,-100.00,WNW,293,4.0,10.0,84,0.00,,,0.00,0.000000,,2013-01-26 07:42:00,
2013-01-26 01:52:00,10.0,6.0,-100.00,WNW,293,4.0,10.0,84,0.00,,,0.00,0.000000,,2013-01-26 07:52:00,
2013-01-26 02:01:00,10.0,6.0,-100.00,WNW,288,4.0,8.0,84,0.00,,,0.00,0.000000,,2013-01-26 08:01:00,
2013-01-26 02:32:00,10.0,6.0,-100.00,WNW,288,4.0,8.0,84,0.00,,,0.00,0.000000,,2013-01-26 08:32:00,
2013-01-26 02:42:00,10.0,6.0,-100.00,WNW,288,4.0,8.0,84,0.00,,,0.00,0.000000,,2013-01-26 08:42:00,
2013-01-26 02:54:00,10.0,6.0,-100.00,WNW,288,4.0,8.0,84,0.00,,,0.00,0.000000,,2013-01-26 08:54:00,
2013-01-26 03:01:00,9.0,5.0,-100.00,WNW,293,4.0,8.0,83,0.00,,,0.00,0.000000,,2013-01-26 09:01:00,
2013-01-26 03:32:00,9.0,5.0,-100.00,WNW,293,4.0,8.0,83,0.00,,,0.00,0.000000,,2013-01-26 09:32:00,
2013-01-26 03:42:00,9.0,5.0,-100.00,WNW,293,4.0,8.0,83,0.00,,,0.00,0.000000,,2013-01-26 09:42:00,
2013-01-26 03:52:00,9.0,5.0,-100.00,WNW,293,4.0,8.0,83,0.00,,,0.00,0.000000,,2013-01-26 09:52:00,
2013-01-26 04:01:00,9.0,5.0,-100.00,WNW,293,4.0,8.0,83,0.00,,,0.00,0.000000,,2013-01-26 10:01:00,
2013-01-26 04:32:00,9.0,5.0,-100.00,WNW,293,4.0,8.0,83,0.00,,,0.00,0.000000,,2013-01-26 10:32:00,
2013-01-26 04:42:00,9.0,5.0,-100.00,WNW,293,4.0,8.0,83,0.00,,,0.00,0.000000,,2013-01-26 10:42:00,
2013-01-26 04:52:00,9.0,5.0,-100.00,WNW,293,4.0,8.0,83,0.00,,,0.00,0.000000,,2013-01-26 10:52:00,
2013-01-26 05:01:00,8.0,4.0,-100.00,West,277,2.0,7.0,84,0.00,,,0.00,0.000000,,2013-01-26 11:01:00,
2013-01-26 05:32:00,8.0,4.0,-100.00,West,277,2.0,7.0,84,0.00,,,0.00,0.000000,,2013-01-26 11:32:00,
2013-01-26 05:42:00,8.0,4.0,-100.00,West,277,2.0,7.0,84,0.00,,,0.00,0.000000,,2013-01-26 11:42:00,
2013-01-26 05:52:00,8.0,4.0,-100.00,West,277,2.0,7.0,84,0.00,,,0.00,0.000000,,2013-01-26 11:52:00,
2013-01-26 06:01:00,9.0,5.0,-100.00,WSW,243,0.0,5.0,84,0.00,,,0.00,0.000000,,2013-01-26 12:01:00,
2013-01-26 06:33:00,9.0,5.0,-100.00,WSW,243,0.0,5.0,84,0.00,,,0.00,0.000000,,2013-01-26 12:33:00,
2013-01-26 06:42:00,9.0,5.0,-100.00,WSW,243,0.0,5.0,84,0.00,,,0.00,0.000000,,2013-01-26 12:42:00,
2013-01-26 06:53:00,9.0,5.0,-100.00,WSW,243,0.0,5.0,84,0.00,,,0.00,0.000000,,2013-01-26 12:53:00,
2013-01-26 07:01:00,8.0,4.0,-100.00,West,268,2.0,4.0,84,0.00,,,0.00,0.000000,,2013-01-26 13:01:00,
2013-01-26 07:33:00,8.0,4.0,-100.00,West,268,2.0,4.0,84,0.00,,,0.00,0.000000,,2013-01-26 13:33:00,
2013-01-26 07:42:00,8.0,4.0,-100.00,West,268,2.0,4.0,84,0.00,,,0.00,0.000000,,2013-01-26 13:42:00,
2013-01-26 07:53:00,8.0,4.0,-100.00,West,268,2.0,4.0,84,0.00,,,0.00,0.000000,,2013-01-26 13:53:00,
2013-01-26 08:01:00,8.0,4.0,-100.00,WSW,252,0.0,3.0,83,0.00,,,0.00,3.000000,,2013-01-26 14:01:00,
2013-01-26 08:32:00,8.0,4.0,-100.00,WSW,252,0.0,3.0,83,0.00,,,0.00,3.000000,,2013-01-26 14:32:00,
2013-01-26 08:43:00,8.0,4.0,-100.00,WSW,252,0.0,3.0,83,0.00,,,0.00,3.000000,,2013-01-26 14:43:00,
2013-01-26 08:53:00,8.0,4.0,-100.00,WSW,252,0.0,3.0,83,0.00,,,0.00,3.000000,,2013-01-26 14:53:00,
2013-01-26 09:01:00,10.0,6.0,-100.00,West,265,2.0,4.0,83,0.00,,,0.00,29.000000,,2013-01-26 15:01:00,
2013-01-26 09:33:00,10.0,6.0,-100.00,West,265,2.0,4.0,83,0.00,,,0.00,29.000000,,2013-01-26 15:33:00,
2013-01-26 09:43:00,10.0,6.0,-100.00,West,265,2.0,4.0,83,0.00,,,0.00,29.000000,,2013-01-26 15:43:00,
2013-01-26 09:53:00,10.0,6.0,-100.00,West,265,2.0,4.0,83,0.00,,,0.00,29.000000,,2013-01-26 15:53:00,
2013-01-26 10:01:00,15.0,11.0,-100.00,NNW,333,1.0,4.0,82,0.00,,,0.00,63.000000,,2013-01-26 16:01:00,
2013-01-26 10:33:00,15.0,11.0,-100.00,NNW,333,1.0,4.0,82,0.00,,,0.00,63.000000,,2013-01-26 16:33:00,
2013-01-26 10:43:00,15.0,11.0,-100.00,NNW,333,1.0,4.0,82,0.00,,,0.00,63.000000,,2013-01-26 16:43:00,
2013-01-26 10:53:00,15.0,11.0,-100.00,NNW,333,1.0,4.0,82,0.00,,,0.00,63.000000,,2013-01-26 16:53:00,
2013-01-26 12:01:00,17.0,11.0,-100.00,South,170,4.0,7.0,77,-99.99,,,0.00,111.000000,,2013-01-26 18:01:00,
2013-01-26 12:33:00,17.0,11.0,-100.00,South,170,4.0,7.0,77,-99.99,,,0.00,111.000000,,2013-01-26 18:33:00,
2013-01-26 12:42:00,17.0,11.0,-100.00,South,170,4.0,7.0,77,-99.99,,,0.00,111.000000,,2013-01-26 18:42:00,
2013-01-26 12:53:00,17.0,11.0,-100.00,South,170,4.0,7.0,77,-99.99,,,0.00,111.000000,,2013-01-26 18:53:00,
2013-01-26 13:01:00,18.0,12.0,-100.00,SE,146,5.0,7.0,76,0.00,,,0.00,137.000000,,2013-01-26 19:01:00,
2013-01-26 13:22:00,18.0,12.0,-100.00,SE,146,5.0,7.0,76,0.00,,,0.00,137.000000,,2013-01-26 19:22:00,
2013-01-26 13:33:00,18.0,12.0,-100.00,SE,146,5.0,7.0,76,0.00,,,0.00,137.000000,,2013-01-26 19:33:00,
2013-01-26 13:43:00,18.0,12.0,-100.00,SE,146,5.0,7.0,76,0.00,,,0.00,137.000000,,2013-01-26 19:43:00,
2013-01-26 13:53:00,18.0,12.0,-100.00,SE,146,5.0,7.0,76,0.00,,,0.00,137.000000,,2013-01-26 19:53:00,
2013-01-26 14:01:00,19.0,13.0,-100.00,SE,134,1.0,8.0,77,0.00,,,0.00,114.000000,,2013-01-26 20:01:00,
2013-01-26 14:32:00,19.0,13.0,-100.00,SE,134,1.0,8.0,77,0.00,,,0.00,114.000000,,2013-01-26 20:32:00,
2013-01-26 14:42:00,19.0,13.0,-100.00,SE,134,1.0,8.0,77,0.00,,,0.00,114.000000,,2013-01-26 20:42:00,
2013-01-26 14:52:00,19.0,13.0,-100.00,SE,134,1.0,8.0,77,0.00,,,0.00,114.000000,,2013-01-26 20:52:00,
2013-01-26 15:01:00,18.0,13.0,-100.00,ESE,111,3.0,5.0,79,0.00,,,0.00,58.000000,,2013-01-26 21:01:00,
2013-01-26 15:23:00,18.0,13.0,-100.00,ESE,111,3.0,5.0,79,0.00,,,0.00,58.000000,,2013-01-26 21:23:00,
2013-01-26 15:32:00,18.0,13.0,-100.00,ESE,111,3.0,5.0,79,0.00,,,0.00,58.000000,,2013-01-26 21:32:00,
2013-01-26 15:43:00,18.0,13.0,-100.00,ESE,111,3.0,5.0,79,0.00,,,0.00,58.000000,,2013-01-26 21:43:00,
2013-01-26 15:52:00,18.0,13.0,-100.00,ESE,111,3.0,5.0,79,0.00,,,0.00,58.000000,,2013-01-26 21:52:00,
2013-01-26 16:01:00,19.0,14.0,-100.00,South,177,2.0,5.0,80,0.00,,,0.00,34.000000,,2013-01-26 22:01:00,
2013-01-26 16:32:00,19.0,14.0,-100.00,South,177,2.0,5.0,80,0.00,,,0.00,34.000000,,2013-01-26 22:32:00,
2013-01-26 16:42:00,19.0,14.0,-100.00,South,177,2.0,5.0,80,0.00,,,0.00,34.000000,,2013-01-26 22:42:00,
2013-01-26 16:52:00,19.0,14.0,-100.00,South,177,2.0,5.0,80,0.00,,,0.00,34.000000,,2013-01-26 22:52:00,
2013-01-26 17:01:00,18.0,13.0,-100.00,SW,227,3.0,8.0,80,0.00,,,0.00,7.000000,,2013-01-26 23:01:00,
2013-01-26 17:22:00,18.0,13.0,-100.00,SW,227,3.0,8.0,80,0.00,,,0.00,7.000000,,2013-01-26 23:22:00,
2013-01-26 17:33:00,18.0,13.0,-100.00,SW,227,3.0,8.0,80,0.00,,,0.00,7.000000,,2013-01-26 23:33:00,
2013-01-26 17:42:00,18.0,13.0,-100.00,SW,227,3.0,8.0,80,0.00,,,0.00,7.000000,,2013-01-26 23:42:00,
2013-01-26 17:52:00,18.0,13.0,-100.00,SW,227,3.0,8.0,80,0.00,,,0.00,7.000000,,2013-01-26 23:52:00,
2013-01-26 18:01:00,18.0,13.0,-100.00,SSW,196,3.0,8.0,80,0.00,,,0.00,0.000000,,2013-01-27 00:01:00,
2013-01-26 18:32:00,18.0,13.0,-100.00,SSW,196,3.0,8.0,80,0.00,,,0.00,0.000000,,2013-01-27 00:32:00,
2013-01-26 18:42:00,18.0,13.0,-100.00,SSW,196,3.0,8.0,80,0.00,,,0.00,0.000000,,2013-01-27 00:42:00,
2013-01-26 18:52:00,18.0,13.0,-100.00,SSW,196,3.0,8.0,80,0.00,,,0.00,0.000000,,2013-01-27 00:52:00,
2013-01-26 19:01:00,18.0,13.0,-100.00,SSW,206,4.0,12.0,79,0.00,,,0.00,0.000000,,2013-01-27 01:01:00,
2013-01-26 19:32:00,18.0,13.0,-100.00,SSW,206,4.0,12.0,79,0.00,,,0.00,0.000000,,2013-01-27 01:32:00,
2013-01-26 19:42:00,18.0,13.0,-100.00,SSW,206,4.0,12.0,79,0.00,,,0.00,0.000000,,2013-01-27 01:42:00,
2013-01-26 19:52:00,18.0,13.0,-100.00,SSW,206,4.0,12.0,79,0.00,,,0.00,0.000000,,2013-01-27 01:52:00,
2013-01-26 20:01:00,17.0,12.0,-100.00,South,182,4.0,10.0,79,0.00,,,0.00,0.000000,,2013-01-27 02:01:00,
2013-01-26 20:22:00,17.0,12.0,-100.00,South,182,4.0,10.0,79,0.00,,,0.00,0.000000,,2013-01-27 02:22:00,
2013-01-26 20:32:00,17.0,12.0,-100.00,South,182,4.0,10.0,79,0.00,,,0.00,0.000000,,2013-01-27 02:32:00,
2013-01-26 20:42:00,17.0,12.0,-100.00,South,182,4.0,10.0,79,0.00,,,0.00,0.000000,,2013-01-27 02:42:00,
2013-01-26 20:52:00,17.0,12.0,-100.00,South,182,4.0,10.0,79,0.00,,,0.00,0.000000,,2013-01-27 02:52:00,
2013-01-26 21:01:00,17.0,11.0,-100.00,SSW,203,5.0,15.0,77,0.00,,,0.00,0.000000,,2013-01-27 03:01:00,
2013-01-26 21:32:00,17.0,11.0,-100.00,SSW,203,5.0,15.0,77,0.00,,,0.00,0.000000,,2013-01-27 03:32:00,
2013-01-26 21:42:00,17.0,11.0,-100.00,SSW,203,5.0,15.0,77,0.00,,,0.00,0.000000,,2013-01-27 03:42:00,
2013-01-26 21:52:00,17.0,11.0,-100.00,SSW,203,5.0,15.0,77,0.00,,,0.00,0.000000,,2013-01-27 03:52:00,
2013-01-26 22:01:00,17.0,11.0,-100.00,SSW,210,6.0,12.0,77,0.00,,,0.00,0.000000,,2013-01-27 04:01:00,
2013-01-26 22:32:00,17.0,11.0,-100.00,SSW,210,6.0,12.0,77,0.00,,,0.00,0.000000,,2013-01-27 04:32:00,
2013-01-26 22:42:00,17.0,11.0,-100.00,SSW,210,6.0,12.0,77,0.00,,,0.00,0.000000,,2013-01-27 04:42:00,
2013-01-26 22:52:00,17.0,11.0,-100.00,SSW,210,6.0,12.0,77,0.00,,,0.00,0.000000,,2013-01-27 04:52:00,
2013-01-26 23:01:00,17.0,10.0,-100.00,SSW,208,7.0,14.0,75,0.00,,,0.00,0.000000,,2013-01-27 05:01:00,
2013-01-26 23:22:00,17.0,10.0,-100.00,SSW,208,7.0,14.0,75,0.00,,,0.00,0.000000,,2013-01-27 05:22:00,
2013-01-26 23:32:00,17.0,10.0,-100.00,SSW,208,7.0,14.0,75,0.00,,,0.00,0.000000,,2013-01-27 05:32:00,
2013-01-26 23:42:00,17.0,10.0,-100.00,SSW,208,7.0,14.0,75,0.00,,,0.00,0.000000,,2013-01-27 05:42:00,
2013-01-26 23:52:00,17.0,10.0,-100.00,SSW,208,7.0,14.0,75,0.00,,,0.00,0.000000,,2013-01-27 05:52:00,